TimeEDT,TemperatureF,Dew PointF,Humidity,Sea Level PressureIn,VisibilityMPH,Wind Direction,Wind SpeedMPH,Gust SpeedMPH,PrecipitationIn,Events,Conditions,WindDirDegrees,DateUTC
12:52 AM,43.0,37.9,82,29.56,10.0,SW,5.8,-,N/A,,Overcast,220,2012-11-02 04:52:00
1:52 AM,43.0,37.0,80,29.56,10.0,WSW,3.5,-,N/A,,Overcast,240,2012-11-02 05:52:00
3:52 AM,42.1,37.0,82,29.56,10.0,South,3.5,-,N/A,,Overcast,180,2012-11-02 07:52:00
4:07 AM,42.8,37.4,81,29.53,10.0,South,4.6,-,N/A,,Overcast,190,2012-11-02 08:07:00
4:52 AM,41.0,37.0,86,29.56,10.0,South,4.6,-,N/A,,Scattered Clouds,190,2012-11-02 08:52:00
5:52 AM,39.0,36.0,89,29.56,10.0,Calm,Calm,-,N/A,,Partly Cloudy,0,2012-11-02 09:52:00
6:52 AM,39.9,36.0,86,29.57,10.0,Calm,Calm,-,N/A,,Partly Cloudy,0,2012-11-02 10:52:00
7:52 AM,37.9,35.1,89,29.59,10.0,Calm,Calm,-,N/A,,Mostly Cloudy,0,2012-11-02 11:52:00
8:35 AM,39.2,35.6,87,29.56,10.0,Calm,Calm,-,N/A,,Partly Cloudy,0,2012-11-02 12:35:00
8:52 AM,39.9,35.1,83,29.59,10.0,West,4.6,-,N/A,,Scattered Clouds,270,2012-11-02 12:52:00
9:52 AM,43.0,34.0,71,29.59,10.0,WNW,8.1,-,N/A,,Overcast,290,2012-11-02 13:52:00
10:52 AM,44.1,32.0,63,29.59,10.0,NW,8.1,-,N/A,,Mostly Cloudy,320,2012-11-02 14:52:00
11:03 AM,44.6,33.8,66,29.56,10.0,WNW,8.1,-,N/A,,Mostly Cloudy,290,2012-11-02 15:03:00
11:52 AM,45.0,33.1,63,29.59,10.0,WNW,5.8,-,N/A,,Overcast,300,2012-11-02 15:52:00
12:52 PM,46.0,32.0,58,29.57,10.0,WNW,8.1,16.1,N/A,,Overcast,290,2012-11-02 16:52:00
1:52 PM,46.0,33.1,61,29.56,10.0,WNW,5.8,-,N/A,,Overcast,290,2012-11-02 17:52:00
2:52 PM,46.0,32.0,58,29.56,10.0,WNW,5.8,-,N/A,,Overcast,290,2012-11-02 18:52:00
3:52 PM,45.0,30.9,58,29.57,10.0,WSW,5.8,-,N/A,,Overcast,250,2012-11-02 19:52:00
5:52 PM,44.1,30.0,58,29.60,10.0,Variable,3.5,-,N/A,,Overcast,0,2012-11-02 21:52:00
6:52 PM,44.1,30.0,58,29.62,10.0,Variable,6.9,-,N/A,,Overcast,0,2012-11-02 22:52:00
7:52 PM,43.0,30.9,62,29.64,10.0,Variable,4.6,-,N/A,,Overcast,0,2012-11-02 23:52:00
8:52 PM,42.1,30.9,65,29.65,10.0,Variable,4.6,-,N/A,,Overcast,0,2012-11-03 00:52:00
9:52 PM,41.0,32.0,70,29.65,10.0,West,5.8,-,N/A,,Overcast,280,2012-11-03 01:52:00
10:52 PM,39.9,32.0,73,29.65,10.0,Calm,Calm,-,N/A,,Mostly Cloudy,0,2012-11-03 02:52:00
11:52 PM,39.0,30.9,73,29.64,10.0,West,3.5,-,N/A,,Scattered Clouds,270,2012-11-03 03:52:00